[Iaude] MPEC J307: 2024 JH17 [a=2.49,e=0.58,i=22.1,H=24.8]
    mpec at cfa.harvard.edu 
    mpec at cfa.harvard.edu
       
    Wed May 15 07:42:00 EDT 2024
    
    
  
M.P.E.C. 2024-J307                                 Issued 2024 May 15, 11:40 UT
     The Minor Planet Electronic Circulars contain information on unusual
         minor planets, routine data on comets and natural satellites,
         and occasional editorial announcements.  They are published
    on behalf of Division F of the International Astronomical Union by the
          Minor Planet Center, Smithsonian Astrophysical Observatory,
                          Cambridge, MA 02138, U.S.A.
			  
             Prepared using the Tamkin Foundation Computer Network
                              MPC at CFA.HARVARD.EDU
            URL https://www.minorplanetcenter.net/    ISSN 1523-6714
                                   2024 JH17                                    
Observations:
     K24J17H 1C2024 05 12.27336 13 39 59.83 +38 04 01.2                VEJ307G96
     K24J17H 1C2024 05 12.27856 13 39 59.75 +38 02 32.8                VEJ307G96
     K24J17H 1C2024 05 12.28376 13 39 59.53 +38 01 05.0                VEJ307G96
     K24J17H*1C2024 05 14.27100213 40 51.182+27 13 55.99         20.74GVEJ307G96
     K24J17H 1C2024 05 14.27614513 40 51.035+27 12 00.11         21.01GVEJ307G96
     K24J17H 1C2024 05 14.28642513 40 50.808+27 08 08.59         21.10GVEJ307G96
     K24J17H  C2024 05 14.31855613 40 49.903+26 55 56.29         21.2 GVEJ307H01
     K24J17H  C2024 05 14.32301713 40 49.844+26 54 14.79         21.0 GVEJ307H01
     K24J17H  C2024 05 14.33170013 40 49.746+26 50 57.41         20.7 GVEJ307H01
     K24J17H  C2024 05 14.33937913 40 49.675+26 48 02.17         21.1 GVEJ307H01
     K24J17H KC2024 05 14.35643513 40 49.814+26 41 38.18         20.96GVEJ307I52
     K24J17H KC2024 05 14.35828713 40 49.782+26 40 55.92         20.67GVEJ307I52
     K24J17H KC2024 05 14.36014513 40 49.789+26 40 12.90         20.92GVEJ307I52
     K24J17H KC2024 05 14.36200313 40 49.760+26 39 30.24         20.80GVEJ307I52
     K24J17H 1C2024 05 14.86597 13 41 12.47 +23 22 16.0          20.6 VXEJ307033
     K24J17H 1C2024 05 14.86677 13 41 12.45 +23 21 56.6          20.5 VXEJ307033
     K24J17H 1C2024 05 14.86757 13 41 12.44 +23 21 37.6          20.7 VXEJ307033
     K24J17H 1C2024 05 14.86837 13 41 12.43 +23 21 18.4          20.8 VXEJ307033
     K24J17H 6C2024 05 14.92038 13 41 13.73 +23 00 46.8          20.3 GVEJ307Z84
     K24J17H 6C2024 05 14.92968 13 41 13.57 +22 57 00.7          20.4 GVEJ307Z84
     K24J17H 1C2024 05 14.96917 13 41 11.86 +22 40 21.6          21.2 VXEJ307033
     K24J17H 1C2024 05 14.96997 13 41 11.85 +22 40 01.9          21.4 VXEJ307033
     K24J17H 1C2024 05 14.97077 13 41 11.85 +22 39 42.4          21.6 VXEJ307033
     K24J17H 1C2024 05 14.97157 13 41 11.84 +22 39 22.7          21.5 VXEJ307033
     K24J17H KC2024 05 15.17190913 41 24.508+21 17 20.08         19.77GVEJ307I52
     K24J17H KC2024 05 15.17287113 41 24.504+21 16 56.14         19.94GVEJ307I52
     K24J17H KC2024 05 15.17384313 41 24.468+21 16 31.80         19.94GVEJ307I52
     K24J17H KC2024 05 15.17481213 41 24.475+21 16 07.61         20.01GVEJ307I52
     K24J17H 1C2024 05 15.22696813 41 23.521+20 54 17.93         19.92GVEJ307G96
     K24J17H 1C2024 05 15.23212813 41 23.413+20 52 07.10         19.62GVEJ307G96
     K24J17H 1C2024 05 15.23730713 41 23.298+20 49 54.91               VEJ307G96
     K24J17H 1C2024 05 15.24247813 41 23.226+20 47 45.67         19.86GVEJ307G96
Observer details:
033 Karl Schwarzschild Observatory, Tautenburg.  Observers C. Heogner, F.
    Ludwig, M. Hartmann, B. Stecklum.  Measurer B. Stecklum.  1.34-m f/3
    Schmidt + CCD.
G96 Mt. Lemmon Survey.  Observers K. W. Wierzchos, D. Rankin.  Measurers B.
    Gray, D. Rankin, F. C. Shelly, T. Beuden, V. F. Carvajal, D. Fay, J. B.
    Fazekas, D. C. Fuls, A. R. Gibbs, A. D. Grauer, H. Groeller, J. K. Hogan,
    R. A. Kowalski, S. M. Larson, G. J. Leonard, R. L. Seaman, K. W.
    Wierzchos.  1.5-m reflector + 10K CCD.
H01 Magdalena Ridge Observatory, Socorro.  Observers W. H. Ryan, E. V. Ryan.
    Measurer W. H. Ryan.  2.4-m f/8.9 Ritchey-Chretien + CCD.
I52 Steward Observatory, Mt. Lemmon Station.  Observer K. W. Wierzchos.
    Measurers T. Beuden, V. F. Carvajal, D. Fay, J. B. Fazekas, D. C. Fuls, A.
    R. Gibbs, A. D. Grauer, H. Groeller, J. K. Hogan, R. A. Kowalski, S. M.
    Larson, G. J. Leonard, D. Rankin, R. L. Seaman, F. C. Shelly, K. W.
    Wierzchos.  1.0-m prime focus + CCD.
Z84 Calar Alto-Schmidt.  Observers M. Micheli, R. Kresken.  Measurers R.
    Kresken, M. Micheli, F. Ocana, L. Conversi.  0.8-m f/3 Schmidt + CCD.
Orbital elements:
2024 JH17                                                Earth MOID = 0.0492 AU
Epoch 2024 Mar. 31.0 TT = JDT 2460400.5                 Veres                   
M 351.39612              (2000.0)            P               Q                  
n   0.25064402     Peri.  162.97834     -0.75095758     +0.58057037             
a   2.4913294      Node    56.76262     -0.64117983     -0.52708712             
e   0.5804643      Incl.   22.09758     -0.15795930     -0.62057813             
P   3.93           H   24.86          G   0.15           U   8                  
Residuals in seconds of arc
240512 G96  0.1-  0.3+    240514 I52  0.2-  0.4+    240514 033  0.1+  0.2+
240512 G96  0.7+  0.2-    240514 I52  0.1+  0.1-    240514 033  0.0   0.2+
240512 G96  0.3-  0.0     240514 I52  0.2-  0.3-    240515 I52  0.1-  0.1+
240514 G96 (0.7+  0.1+)   240514 033  0.3+  0.2-    240515 I52  0.1+  0.2+
240514 G96  0.1+  0.1-    240514 033  0.1+  0.3-    240515 I52  0.2-  0.1+
240514 G96  0.1-  0.0     240514 033  0.0   0.0     240515 I52  0.1+  0.1+
240514 H01  0.2+  0.0     240514 033  0.0   0.2+    240515 G96  0.1+  0.1+
240514 H01  0.1+  0.1-    240514 Z84  0.1+  0.2-    240515 G96  0.1-  0.4-
240514 H01  0.1+  0.1+    240514 Z84  0.1+  0.1+    240515 G96  0.3-  1.8-
240514 H01  0.1+  0.0     240514 033  0.2+  0.1+    240515 G96  0.1+  0.3-
240514 I52  0.0   0.2+    240514 033  0.1+  0.0
Ephemeris:
2024 JH17                a,e,i = 2.49, 0.58, 22                  q = 1.0452
Date    TT    R. A. (2000) Decl.     Delta      r    Elong.  Phase     V
2024 04 15    13 40 45.8 +72 47 38   0.2746  1.0739    97.5    67.9    24.6
...
2024 04 30    13 38 40.9 +65 12 58   0.1636  1.0467    99.5    71.7    23.5
...
2024 05 08    13 38 56.4 +52 47 14   0.1046  1.0463   108.0    66.6    22.4
...
2024 05 14    13 40 45.2 +28 53 45   0.06821 1.0525   126.4    50.6    21.0
2024 05 15    13 41 15.8 +22 29 14   0.06404 1.0541   131.1    46.2    20.8
2024 05 16    13 41 50.6 +15 16 21   0.06079 1.0558   136.3    41.4    20.5
...
2024 05 22    13 47 04.4 -32 12 34   0.06595 1.0693   149.0    29.2    20.4
...
2024 05 30    14 00 11.5 -62 48 03   0.1166  1.0951   132.0    43.5    22.1
...
2024 06 14    14 51 49.1 -76 22 13   0.2385  1.1642   123.4    46.7    23.8
M. P. C. Staff               (C) Copyright 2024 MPC           M.P.E.C. 2024-J307
    
    
More information about the Iaude
mailing list